Location: Aiyede
(8.4833°N, 4.4500°E)
Time: 09:54:40
(UTC+00:00)

ATLAS 2AS CENTAUR R/B - Pass Details

Date: 24 September 2020
Orbit: 939 x 1273 km, 63.7° (Epoch: 19 October)

Event Time Altitude Azimuth Distance (km) Brightness Sun altitude
Rises 18:12:31 0° 208° (SSW) 4,026 6.1 -9.7°
Reaches altitude 10° 18:15:11 10° 211° (SSW) 3,106 5.5 -10.3°
Maximum altitude 18:22:41 70° 293° (WNW) 1,304 3.4 -12.2°
Drops below altitude 10° 18:30:34 10° 17° (NNE) 3,252 5.1 -14.1°
Sets 18:33:26 0° 19° (NNE) 4,225 5.6 -14.8°
